Total_Precipitation_Accumulation
0.00 0.00 0.00 0.01 0.01 0.01 0.01 0.02 0.04 0.05 0.03 0.05 0.10 0.19 0.28 0.38 0.40 0.38 0.32 0.35 0.41 0.52 0.67 0.81 1.02 1.26 1.49 1.74 2.04 2.34 2.60 2.77 2.66 2.42 2.19 2.01 1.86 1.80 1.62 1.52 1.45 1.41 1.41 1.51
0.01 0.02 0.01 0.01 0.01 0.01 0.02 0.04 0.05 0.08 0.06 0.07 0.15 0.26 0.40 0.42 0.46 0.46 0.35 0.32 0.42 0.63 0.71 0.95 1.14 1.21 1.38 1.66 2.06 2.33 2.64 2.75 2.55 2.28 2.10 2.02 1.99 1.73 1.52 1.52 1.50 1.51 1.56 1.57
0.01 0.02 0.01 0.01 0.02 0.02 0.03 0.03 0.05 0.06 0.07 0.12 0.16 0.35 0.56 0.47 0.48 0.48 0.44 0.45 0.56 0.82 1.14 1.27 1.18 1.20 1.31 1.50 1.74 1.93 2.04 2.02 1.91 1.88 1.93 1.94 1.95 1.72 1.67 1.75 1.79 1.77 1.78 1.74
0.01 0.01 0.02 0.02 0.03 0.03 0.05 0.03 0.03 0.03 0.05 0.13 0.16 0.38 0.73 0.63 0.49 0.53 0.56 0.55 0.82 1.05 1.00 1.03 1.12 1.21 1.33 1.45 1.62 1.78 1.77 1.62 1.51 1.56 1.74 1.82 1.79 1.75 1.90 2.13 2.06 1.84 1.68 1.54
0.03 0.02 0.03 0.03 0.03 0.03 0.03 0.02 0.02 0.03 0.04 0.08 0.12 0.31 0.70 0.72 0.70 0.60 0.56 0.71 0.98 0.94 0.80 0.83 0.97 1.07 1.11 1.23 1.31 1.47 1.55 1.47 1.44 1.45 1.52 1.63 1.67 1.67 1.68 1.68 1.63 1.52 1.37 1.18
0.04 0.04 0.03 0.02 0.02 0.02 0.02 0.03 0.05 0.07 0.08 0.16 0.21 0.28 0.58 0.77 0.65 0.50 0.54 0.66 0.81 0.78 0.74 0.78 0.81 0.85 0.92 1.00 1.01 0.99 1.07 1.15 1.21 1.25 1.28 1.30 1.27 1.23 1.18 1.11 1.08 1.03 0.95 0.79
0.07 0.07 0.04 0.03 0.02 0.02 0.03 0.04 0.18 0.38 0.39 0.43 0.28 0.39 0.79 0.71 0.54 0.53 0.61 0.62 0.57 0.56 0.57 0.66 0.68 0.69 0.75 0.80 0.78 0.78 0.83 0.94 0.95 0.91 0.94 0.95 0.94 0.89 0.83 0.83 0.81 0.78 0.72 0.62
0.15 0.18 0.08 0.04 0.04 0.03 0.03 0.05 0.15 0.28 0.28 0.36 0.33 0.65 1.09 0.75 0.57 0.59 0.58 0.51 0.46 0.45 0.46 0.55 0.62 0.65 0.65 0.63 0.64 0.66 0.69 0.72 0.70 0.67 0.68 0.69 0.72 0.71 0.67 0.67 0.60 0.57 0.58 0.58
0.10 0.08 0.05 0.05 0.07 0.06 0.05 0.04 0.06 0.16 0.16 0.19 0.36 0.65 0.75 0.51 0.45 0.51 0.51 0.46 0.48 0.48 0.45 0.44 0.45 0.49 0.49 0.46 0.46 0.51 0.60 0.64 0.66 0.65 0.63 0.59 0.59 0.57 0.52 0.48 0.46 0.45 0.47 0.50
0.03 0.04 0.05 0.04 0.05 0.07 0.06 0.06 0.09 0.12 0.12 0.16 0.26 0.53 0.65 0.50 0.43 0.33 0.27 0.21 0.21 0.23 0.23 0.22 0.22 0.23 0.24 0.27 0.34 0.41 0.45 0.46 0.49 0.51 0.53 0.53 0.49 0.44 0.38 0.35 0.36 0.35 0.37 0.41
0.02 0.02 0.04 0.04 0.06 0.06 0.06 0.05 0.06 0.06 0.07 0.12 0.20 0.38 0.31 0.32 0.29 0.26 0.20 0.14 0.13 0.11 0.12 0.16 0.18 0.21 0.23 0.27 0.34 0.42 0.44 0.44 0.46 0.45 0.45 0.45 0.43 0.40 0.35 0.30 0.29 0.30 0.33 0.36
0.01 0.01 0.02 0.04 0.07 0.06 0.06 0.05 0.05 0.07 0.06 0.08 0.13 0.24 0.15 0.18 0.18 0.17 0.17 0.14 0.14 0.15 0.15 0.17 0.17 0.23 0.28 0.28 0.29 0.35 0.39 0.44 0.53 0.61 0.69 0.70 0.62 0.53 0.44 0.35 0.30 0.29 0.32 0.35
0.01 0.01 0.03 0.11 0.18 0.10 0.07 0.07 0.07 0.07 0.05 0.07 0.13 0.23 0.11 0.08 0.09 0.14 0.32 0.39 0.28 0.18 0.11 0.11 0.14 0.20 0.26 0.30 0.32 0.36 0.39 0.43 0.52 0.67 0.91 1.02 0.94 0.80 0.61 0.43 0.29 0.24 0.24 0.27
0.01 0.00 0.02 0.06 0.08 0.07 0.08 0.07 0.06 0.05 0.08 0.07 0.10 0.21 0.14 0.08 0.04 0.03 0.06 0.10 0.14 0.12 0.09 0.08 0.11 0.17 0.22 0.29 0.37 0.42 0.45 0.44 0.50 0.62 0.78 0.85 0.78 0.68 0.55 0.37 0.24 0.19 0.19 0.21
0.01 0.01 0.00 0.01 0.03 0.04 0.07 0.08 0.07 0.06 0.06 0.11 0.09 0.12 0.08 0.03 0.03 0.04 0.04 0.07 0.11 0.12 0.10 0.08 0.11 0.16 0.19 0.23 0.30 0.32 0.28 0.23 0.28 0.40 0.46 0.51 0.45 0.35 0.29 0.25 0.20 0.18 0.19 0.21
0.01 0.01 0.00 0.01 0.02 0.04 0.06 0.08 0.07 0.04 0.03 0.02 0.03 0.04 0.02 0.03 0.09 0.13 0.09 0.08 0.09 0.09 0.08 0.08 0.11 0.16 0.17 0.16 0.17 0.13 0.12 0.13 0.17 0.24 0.28 0.34 0.36 0.29 0.23 0.19 0.16 0.15 0.18 0.22
0.02 0.02 0.01 0.01 0.03 0.03 0.09 0.09 0.06 0.03 0.02 0.02 0.04 0.05 0.04 0.04 0.06 0.09 0.08 0.05 0.04 0.04 0.03 0.03 0.06 0.08 0.06 0.05 0.05 0.06 0.07 0.11 0.17 0.22 0.27 0.35 0.37 0.33 0.28 0.21 0.19 0.19 0.21 0.23
0.03 0.03 0.01 0.01 0.03 0.10 0.10 0.05 0.04 0.04 0.04 0.04 0.05 0.05 0.06 0.07 0.06 0.08 0.10 0.07 0.04 0.02 0.02 0.01 0.01 0.01 0.01 0.01 0.02 0.03 0.05 0.10 0.15 0.21 0.26 0.31 0.36 0.34 0.31 0.31 0.32 0.33 0.31 0.29
0.04 0.03 0.02 0.01 0.03 0.09 0.06 0.05 0.05 0.06 0.06 0.05 0.06 0.08 0.09 0.10 0.09 0.09 0.07 0.04 0.02 0.01 0.01 0.01 0.01 0.01 0.01 0.01 0.02 0.04 0.08 0.10 0.13 0.20 0.28 0.32 0.37 0.37 0.37 0.38 0.39 0.40 0.40 0.35
0.03 0.04 0.03 0.02 0.05 0.10 0.07 0.07 0.08 0.07 0.17 0.17 0.13 0.11 0.07 0.05 0.06 0.03 0.01 0.00 0.00 0.00 0.00 0.01 0.01 0.01 0.01 0.03 0.06 0.10 0.12 0.14 0.18 0.23 0.30 0.36 0.41 0.45 0.45 0.47 0.47 0.46 0.48 0.43
0.02 0.03 0.03 0.05 0.08 0.08 0.04 0.05 0.06 0.14 0.22 0.10 0.04 0.03 0.02 0.05 0.06 0.03 0.01 0.01 0.00 0.00 0.01 0.01 0.02 0.03 0.05 0.09 0.13 0.15 0.16 0.18 0.19 0.22 0.28 0.38 0.44 0.50 0.53 0.58 0.60 0.59 0.58 0.56
0.01 0.02 0.03 0.06 0.11 0.14 0.04 0.02 0.04 0.07 0.05 0.03 0.02 0.02 0.03 0.03 0.02 0.01 0.01 0.01 0.00 0.00 0.01 0.01 0.02 0.04 0.06 0.11 0.15 0.18 0.19 0.19 0.21 0.26 0.34 0.41 0.46 0.44 0.47 0.63 0.68 0.71 0.73 0.69
0.00 0.01 0.02 0.04 0.06 0.04 0.02 0.02 0.03 0.03 0.04 0.04 0.04 0.03 0.03 0.02 0.02 0.02 0.02 0.01 0.01 0.01 0.02 0.03 0.04 0.06 0.10 0.14 0.20 0.25 0.24 0.27 0.29 0.33 0.39 0.45 0.47 0.51 0.60 0.69 0.73 0.77 0.81 0.80
0.00 0.01 0.02 0.05 0.03 0.02 0.02 0.03 0.02 0.02 0.02 0.02 0.02 0.02 0.02 0.03 0.03 0.03 0.03 0.03 0.03 0.03 0.04 0.05 0.07 0.09 0.13 0.17 0.23 0.30 0.35 0.39 0.41 0.42 0.43 0.46 0.51 0.53 0.58 0.69 0.75 0.79 0.84 0.88
0.01 0.01 0.03 0.06 0.04 0.03 0.03 0.02 0.01 0.01 0.00 0.00 0.01 0.02 0.03 0.04 0.04 0.04 0.04 0.05 0.06 0.05 0.05 0.07 0.12 0.16 0.18 0.23 0.29 0.33 0.40 0.47 0.51 0.51 0.49 0.49 0.52 0.59 0.66 0.71 0.76 0.74 0.80 0.79
0.01 0.02 0.04 0.06 0.05 0.05 0.05 0.02 0.01 0.01 0.01 0.02 0.02 0.02 0.03 0.04 0.04 0.04 0.05 0.06 0.06 0.06 0.08 0.11 0.14 0.17 0.20 0.25 0.33 0.36 0.45 0.54 0.61 0.64 0.63 0.60 0.56 0.61 0.68 0.72 0.70 0.61 0.56 0.54